Location: Bílinka
(49.3579°N, 14.3767°E)
Time: 22:44:45
(UTC+00:00)

ATLAS 5 CENTAUR R/B - Pass Details

Date: 28 January 2023
Orbit: 460 x 1178 km, 63.3° (Epoch: 24 March)

Event Time Altitude Azimuth Distance (km) Brightness Sun altitude
Rises 17:13:24 0° 254° (WSW) 2,532 6.8 -13.3°
Reaches altitude 10° 17:15:37 10° 267° (W) 1,705 5.2 -13.7°
Maximum altitude 17:18:57 29° 329° (NNW) 1,026 2.9 -14.2°
Enters shadow 17:22:25 11° 28° (NNE) 1,851 3.6 -14.8°
